Tracking 21473 objects as of 18-Sep-2020
HD Live streaming from Space Station
objects crossing your sky now

DELTA 1 DEB (YO)

Track DELTA 1 DEB (YO) now!
10-day predictions


NORAD ID: 228
Int'l Code: 1962-002C
Perigee: 559.3 km
Apogee: 580.1 km
Inclination: 48.4 °
Period: 95.9 minutes
Semi major axis: 6940 km
RCS: 0.049 m2 (small)
Launch date: February 8, 1962
Source: United States (US)
Launch site: AIR FORCE EASTERN TEST RANGE (AFETR)

Note: This is SATELLITE DEBRIS
aabbcc
Your satellite tracking list
Your tracking list is empty




NASA's NSSDC Master Catalog

Two Line Element Set (TLE):
1   228U 62002C   20262.12986119 +.00000053 +00000-0 +24238-4 0  9992
2   228 048.4302 045.7192 0014997 350.1216 009.9411 15.01393416125141
Source of the keplerian elements: AFSPC